Погода в Утене

Поиск расширенной информации на нашем сайте:

Полезная информация:

Новости сайта



02.01.2020
Опубликован Долгосрочный прогноз погоды по городам России и ближнего зарубежья на январь 2020 года.
Карты: Прогноз на январь и февраль 2020 года, Сравнение прогнозируемой аномалии приземной температуры воздуха на январь 2020 года по разным моделям.




Погода в Утене - сегодня

Время (UTC), дата Ветер
(°,м/с) 
Видим.   Явления Облачность Т
(°С)
Тd
(°С)
f(%) Тe
(°С)
Pmin
(гПа)
dP
(гПа)
Po
(мм)
O2
(г/м3)
Тmin Tmax R s Состояние
почвы
03 04.08.20 150 (ЮВ) 2-3{04}  20000 м  {дождь}  10/0 средняя 
[Ac As]
+17.4 +11 66 +21  1009.8  -0.7  748  281           
06 04.08.20 140 (ЮВ) 3-5{05}  20000 м  {дождь}  9/4 600 м средняя 
[Sc|Ac und]
+19.1 +12.1 64 +24  1009.3  -0.4  748  279  +17.1    0.0    сухая 
09 04.08.20 150 (ЮВ) 3-6{07}  20000 м    8/3 1000 м средняя 
[Cu med, cong|Ac und]
+24.3 +13.4 51 +30  1008.6  -0.5  747  274           
12 04.08.20 190 (Ю) 4-7{09}  20000 м    9/3 600 м средняя 
[Cu med, cong|Ac und]
+24.9 +13.7 50 +31  1008.6  0.1  747  273           
15 04.08.20 тихо () -3{07}  11000 м  слаб. дождь  10/10 1500 м 
[Ns]
+19.2 +16.3 83 +30  1010.4  1.5  749  278           
18 04.08.20 тихо () -2{03}  3100 м  дождь  10/10 1500 м 
[Ns]
+17.6 +16.3 92 +29  1011.2  0.7  749  280    +26.2     
21 04.08.20 тихо () -2{03}  4600 м  дождь  10/10 1300 м 
[Ns]
+17.3 +16.2 93 +28  1011  -0.2  749  280           
00 05.08.20 290 (З) 1-3{03}  10 км  слаб. дождь  10/10 210 м 
[Frnb|Ns]
+17.3 +16.2 93 +30  1012.1  1.1  750  281      17     
03 05.08.20 300 (СЗ) 2-5{05}  4900 м  слаб. морось{дождь}  10/10 180 м 
[St]
+16.6 +15.8 95 +27  1014  1.8  751  282           
06 05.08.20 320 (СЗ) 2-4{05}  19000 м  в посл. час дождь{морось}  10/10 270 м 
[St]
+16.6 +15.4 93 +26  1016.2  2.2  753  283  +16.3    10    влажная 
09 05.08.20 330 (СЗ) 2-4{06}  20000 м    8/5 1000 м средняя, верхняя 
[Cu med, cong|Ac und|Ci sp]
+19.6 +14.2 71 +28  1018  1.9  754  281           
12 05.08.20 310 (СЗ) 1-3{06}  20000 м    8/5 600 м верхняя 
[Cu med, cong|Ci sp]
+21.4 +13.2 60 +27  1018.9  755  279           
15 05.08.20 300 (СЗ) 1-3{05}  20000 м    3/3 1000 м верхняя 
[Cu med, cong|Ci sp]
+22.8 +9.5 43 +23  1019.5  0.6  755  279           
18 05.08.20 тихо () -0{04}  20000 м    4/3 600 м верхняя 
[Cu med, cong|Ci sp]
+17.1 +12.8 76 +22  1020.7  756  284    +23.3       
21 05.08.20 тихо () -1{05}  20000 м    3/3 1000 м 
[Sc]
+12.9 +11.3 90 +16  1022.5  1.6  757  289           
00 06.08.20 тихо () -0{01}  11000 м    ясно 
+10 +8.8 92 +10  1023.9  1.2  758  293           
03 06.08.20 тихо () -0{00}  18000 м    3/3 600 м 
[Sc]
+8.4 +7.5 94 +8  1025.2  1.2  759  295           
06 06.08.20 тихо () -2{02}  20000 м    3/3 1000 м верхняя 
[Cu hum|Ci fib]
+16.2 +12.1 77 +20  1026  1.2  760  287  +8.4        влажная 
09 06.08.20 280 (З) 2-4{04}  20000 м    3/0 верхняя 
[Ci fib]
+21.1 +9.3 47 +21  1026.6  0.8  761  283           
12 06.08.20 250 (З) 1-3{05}  20000 м    3/0 верхняя 
[Ci fib]
+24 +9.6 40 +24  1026.4  -0.1  761  280           
15 06.08.20 тихо () -2{04}  18000 м    3/0 верхняя 
[Ci fib]
+25.3 +10.7 40 +27  1025.8  -0.5  760  278           
18 06.08.20 тихо () -0{03}  20000 м    3/1 1000 м верхняя 
[Sc|Ci sp]
+20.4 +14 67 +27  1026.5  0.4  760  282    +25.4       
21 06.08.20 тихо () -0{00}  12000 м    ясно 
+14.5 +12.7 89 +19  1027.6  0.9  761  289           
00 07.08.20 тихо () -0{00}  19000 м    ясно 
+12.6 +11.2 91 +15  1028.2  0.5  761  291           
03 07.08.20 тихо () -0{00}  17000 м    3/3 600 м верхняя 
[Sc|Ci fib]
+11.2 +9.9 92 +12  1028.7  0.4  762  293           
Время (UTC), дата Ветер
(°,м/с) 
Видим.   Явления Облачность Т
(°С)
Тd
(°С)
f(%) Тe
(°С)
Pmin
(гПа)
dP
(гПа)
Po
(мм)
O2
(г/м3)
Тmin Tmax R s Состояние
почвы

Для получения пояснительной информации подведите курсор к названию столбца.

ПОГОДА в Утене - архив

Всё, что Вы хотите узнать о погоде в Утене - удобно и подробно!

Выберите нужную дату (начиная с 1 января 2019* года) и нажмите кнопку "Найти".
Будут отображены архивные сводки погоды по пункту Утена, начиная с указанной даты.


Отображать данные в формате CSV (для использования в таблицах Excel)


Внимание! Наш архив погоды предназначен исключительно для личного некоммерческого использования в познавательных целях. Если Вам необходимы официальные справки о состоянии погоды (для производственных, юридических, коммерческих и т.п. целей), обращайтесь в органы Росгидромета.

*Примечание: данная дата относится к архиву по метеостанциям СССР (Россия, СНГ, Балтия).
Архив по метеостанциям Зарубежной Европы и Азии (кроме Китая) хранится 10 дней, по другим регионам земного шара (Китай, Африка, Америка, Австралия, Океания) - 1 день.

Утена - район местоположения метеостанции


Название, широта, долгота, высота метеостанции:
Утена 55.5°ш. 25.6°д. 106 м над ур. моря [Литва]

Дополнительная информация

В oтличие oт бoльшинства пoгoдных сайтoв мы публикуем пoдрoбную метеoинфoрмацию в детальнoм прoфессиoнальнoм фoрмате.

Характеристики температуры и влажнoсти вoздуха измеряются на высoте 2 м в тени вдали oт зданий и деревьев.
Скoрoсть ветра измеряется на высoте 10 м (на урoвне рoста челoвека скoрoсть ветра ниже в 1.5-2 раза). Если метеoстанция нахoдится в гoрoде или в лесу, тo скoрoсть ветра занижена на 2-4 м/с пo сравнению с oткрытым местoм. Скoрoсть ветра над акватoриями крупных рек и oзёр, а также на вершинах хoлмoв на 2-5 м/с выше, чем в oбычных услoвиях.
Атмoсфернoе давление в разных тoчках местнoсти мoжет значительнo oтличаться oт давления на метеoстанции, в зависимoсти oт услoвий рельефа (при пoдъёме на 10 м давление пoнижается примернo на 1 мм рт.ст.).